DECAYED

NOAA 16 DEB, 42420 (Decayed)

Orbit data source: Space-Track

NOAA 16 DEB, 42420 was space debris in SSO originally from a launch on Thu, 21 Sep 2000 UTC launched from the Air Force Western Test Range (AFWTR). Debris objects in space refer to the collection of defunct objects orbiting the Earth. Examples of debris include non-operational satellites, rocket bodies, and fragments generated from explosions, collisions, or faulty payload assembly.

Not visible in the next 10 days
Identifier
42420, 2000-055TQ
Orbit
Decayed
Country
Flag of USUS
Related business
Manufacturer
Unknown
Mission
Decayed spacecraft
Bus & Motor
Unknown
Mass
Unknown
Launch date (UTC)
2000-09-21 (25 years ago)
Launch vehicle
Unknown
Launch site
Air Force Western Test Range (AFWTR)
Object type
Payload
Rocket body
Debris
Shape & HBR
Unknown shape, 0.1 m
Radar Cross Section
Small (<0.1 m²)

Expand to show TLE details & history
Last TLE update: 9 months ago

TLE from 9 months ago
0 NOAA 16 DEB
1 42420U 00055TQ  25070.58387427  .01520877  00000-0  28651-1 0  9993
2 42420  98.9686 296.9217 0008223  29.2491 330.9211 15.45488310469409
Epoch: 2025-03-11T14:00Z
TLE epoch observation values (Epoch: 2025-03-11T14:00:46.736Z)
Latitude
-0.00014°
Longitude
-82.75774°
Altitude
428.126 km
Speed
7.657 km/s
True Right ascension
19h 47m 41s
True Declination
0° 00' 01"
Sunlit
Object was in daylight at epoch
Visualization orbit readout
Latitude
Unknown
Longitude
Unknown
Altitude
Unknown
Speed
Unknown
Apparent Right ascension
Unknown
Apparent Declination
Unknown
Sunlit
N/A
Visualization observer readout
Local Sidereal Time
21:37:00
Azimuth
Unknown
Elevation
Unknown
Doppler factor
Unknown
Orbital elements
Apogee altitude
432.546 km
Perigee altitude
421.354 km
Semi-major axis
6,805.087 km
Eccentricity
0.00082
Inclination
98.9686°
RAAN
296.9217°
Arg. of periapsis
29.2491°
True anomaly
330.87526°
Mean anomaly
330.9211°
Eccentric anomaly
330.89819°
Mean motion
3.86627 °/min
Orbital period
93.11 mins
BSTAR
0.028651
Loading maneuver chart data...
Computing Atmospheric mass density...
Loading historical data...
Loading historical data...
Loading historical data...
Loading historical data...
Loading historical data...
Loading historical data...
Loading historical data...

Documentation

Showing up to 5 results
|